#timestamp,LO_Frequency,Hit,StdDev 
1567630815.1,286046996.2,N
1567630835.9,286046995.5,N
1567630855.7,286046997.2,N
1567630875.5,286046996.7,N
1567630895.4,286046997.9,N
1567630915.2,286046995.8,N
1567630935.0,286046994.0,N
1567630935.9,286046994.0,N
1567630955.8,286046994.6,N
1567630975.6,286046992.5,N
1567630995.5,286046996.0,N
1567631015.3,286046995.5,N
1567631035.1,286046997.5,N
1567631055.9,286047001.1,N
1567631075.7,286046999.7,N
1567631095.5,286047000.4,N
1567631115.4,286047000.7,N
1567631135.2,286046997.1,N
1567631155.1,286046997.5,N
1567631156.0,286046997.5,N
1567631175.8,286046997.6,N
1567631195.6,286046995.5,N
1567631215.5,286046994.3,N
1567631235.3,286046992.2,Y
1567631255.1,286046995.1,P
1567631275.9,286046995.3,P
1567631295.7,286046996.8,P
1567631315.6,286046995.4,Y
1567631335.4,286046997.0,P
1567631355.2,286046998.0,P
1567631375.1,286046997.5,P
1567631376.0,286046997.5,Y
1567631395.8,286047000.4,P
1567631415.7,286047002.8,N
1567631435.5,286047001.9,N
1567631455.3,286047002.3,N
1567631475.2,286047002.6,N
1567631495.0,286047002.8,N
1567631495.9,286047002.8,N
1567631515.7,286047003.1,N
1567631535.6,286047005.3,N
1567631555.4,286047006.6,Y
1567631575.3,286047007.0,P
1567631595.1,286047008.1,P
1567631596.0,286047008.1,P
1567631615.8,286047012.1,Y
1567631635.7,286047007.0,P
1567631655.5,286047004.5,P
1567631675.4,286047007.1,P
1567631695.2,286047008.2,Y
1567631715.0,286047001.9,P
1567631715.9,286047001.9,N
1567631735.8,286047003.2,N
1567631755.6,286047005.5,Y
1567631775.4,286047000.5,P
1567631795.3,286046999.9,N
1567631815.1,286047000.3,N
1567631835.9,286046999.9,N
1567631855.7,286047003.5,N
1567631875.5,286047003.9,N
1567631895.4,286047000.2,N
1567631915.2,286047002.4,N
1567631935.0,286047001.5,N
1567631936.0,286047001.5,N
1567631955.8,286047002.1,N
1567631975.6,286047001.8,N
1567631995.5,286047002.7,N
1567632015.3,286047002.3,N
1567632035.1,286047001.9,N
1567632055.9,286047000.0,N
1567632075.7,286047000.3,N
1567632095.6,286047002.3,N
1567632115.4,286047000.9,N
1567632135.2,286047000.9,N
1567632155.1,286047001.1,N
1567632156.0,286047001.1,N
1567632175.8,286046998.6,N
1567632195.7,286046999.7,N
1567632215.5,286046998.2,N
1567632235.3,286046998.5,N
1567632255.2,286046998.7,N
1567632275.0,286046998.3,N
1567632275.9,286046998.3,N
1567632295.7,286046999.5,N
1567632315.6,286046996.7,N
1567632335.4,286046999.5,N
1567632355.3,286046999.3,N
1567632375.1,286046998.3,N
1567632395.8,286046998.8,N
1567632415.7,286047000.3,N
1567632435.5,286047002.1,N
1567632455.4,286046999.7,N
1567632475.2,286047001.9,N
1567632495.0,286047003.2,N
1567632495.9,286047003.2,N
1567632515.8,286047003.7,N
1567632535.6,286047003.9,N
1567632555.4,286047004.0,N
1567632575.3,286047003.0,N
1567632595.1,286047002.9,N
1567632615.9,286047003.4,N
1567632635.7,286047004.0,N
1567632655.5,286047004.1,N
1567632675.4,286047005.6,N
1567632695.2,286047004.2,N
1567632715.1,286047004.2,N
1567632716.0,286047004.2,N
1567632735.8,286047001.5,N
1567632755.6,286047003.5,N
1567632775.5,286047004.2,N
1567632795.3,286047003.7,N
1567632815.1,286047004.7,N
1567632835.9,286047006.2,N
1567632855.7,286047004.5,N
1567632875.6,286047007.1,Y
1567632895.4,286047004.7,P
1567632915.2,286047005.0,P
1567632935.1,286047005.3,P
1567632936.0,286047005.3,Y
1567632955.8,286047000.7,P
1567632975.6,286047002.8,N
1567632995.5,286047002.4,N
1567633015.3,286047002.4,N
1567633035.2,286047002.2,N
1567633055.9,286047002.7,N
1567633075.7,286047004.4,Y
1567633095.6,286046999.9,P
1567633115.4,286047000.1,N
1567633135.2,286047000.0,N
1567633155.1,286046999.2,N
1567633156.0,286046999.2,N
1567633175.8,286046999.6,N
1567633195.7,286046999.2,N
1567633215.5,286046998.5,N
1567633235.3,286046998.7,N
1567633255.2,286046999.2,N
1567633275.0,286046997.8,N
1567633275.9,286046997.8,N
1567633295.8,286046996.3,Y
1567633315.6,286046993.3,P
1567633335.4,286046998.0,N
1567633355.3,286046995.4,N
1567633405.1,286046994.6,E
1567633415.1,286046998.0,N
1567633416.0,286046998.0,P
1567633435.8,286046998.2,P
1567633455.6,286046998.2,Y
1567633475.5,286047002.6,P
1567633495.3,286047002.0,N
1567633515.2,286047001.6,N
1567633535.9,286047002.7,N
1567633555.7,286046999.9,N
1567633575.6,286046998.7,N
1567633595.4,286046999.0,N
1567633615.2,286046998.5,N
1567633635.1,286047000.8,N
1567633636.0,286047000.8,N
1567633655.8,286046998.8,N
1567633675.7,286046999.1,N
1567633695.5,286047000.8,N
1567633715.3,286046998.8,N
1567633735.2,286046999.1,N
1567633755.0,286046998.7,N
1567633755.9,286046998.7,N
1567633775.7,286047000.8,N
1567633795.6,286047000.6,N
1567633815.4,286046998.2,N
1567633835.3,286046998.6,N
1567633855.1,286046998.7,N
1567633856.0,286046998.7,N
1567633875.8,286046999.4,N
1567633895.7,286046999.0,N
1567633915.5,286046999.3,N
1567633935.3,286046996.7,N
1567633955.2,286046997.1,N
1567633975.0,286046996.5,N
1567633975.9,286046996.5,N
1567633995.8,286046998.0,N
1567634015.6,286046999.1,N
1567634035.4,286046999.3,N
1567634055.3,286046997.0,N
1567634075.1,286046996.9,N
1567634095.8,286046998.6,N
1567634115.7,286046997.8,N
1567634135.5,286046993.3,Y
1567634155.4,286046995.9,P
1567634175.2,286046993.4,P
1567634195.0,286046996.2,N
1567634195.9,286046996.2,N
1567634215.8,286046996.0,N
1567634235.6,286046992.0,Y
1567634255.4,286046995.5,P
1567634275.3,286046997.7,P
1567634295.1,286046996.8,P
1567634315.9,286046998.7,N
1567634335.7,286046997.2,N
1567634355.5,286046996.2,Y
1567634375.4,286046999.1,P
1567634395.2,286046998.4,N
